• In Portugal
  • List of Countries
  • For 7 days
  • Water Temperature
  • Satellite Maps
  • Weather Map
  • Weather Widgets
  • user-avatar
    Login

    Hourly Weather Kabul

    Today, 18 July, Wednesday

    Time Temperature Precipitation Wind Pressure Humidity
    00:00 +26°C° 0.1 mm 1 mps 608 mmHg 52%
    01:00 +25°C° 0.1 mm 1 mps 607 mmHg 56%
    02:00 +25°C° 0.1 mm 1 mps 607 mmHg 59%
    03:00 +24°C° 0 mm 1 mps 607 mmHg 60%
    04:00 +22°C° 0 mm 0 mps 606 mmHg 62%
    05:00 +21°C° 0 mm 0 mps 606 mmHg 64%
    06:00 +22°C° 0 mm 0 mps 607 mmHg 58%
    07:00 +25°C° 0 mm 1 mps 607 mmHg 52%
    08:00 +27°C° 0 mm 1 mps 608 mmHg 46%
    09:00 +28°C° 0.1 mm 1 mps 608 mmHg 41%
    10:00 +29°C° 0.1 mm 1 mps 609 mmHg 35%
    11:00 +31°C° 0 mm 2 mps 609 mmHg 30%
    12:00 +32°C° 0 mm 2 mps 609 mmHg 28%
    13:00 +32°C° 0 mm 2 mps 609 mmHg 25%
    14:00 +34°C° 0 mm 2 mps 609 mmHg 23%
    15:00 +34°C° 0 mm 3 mps 609 mmHg 23%
    16:00 +34°C° 0 mm 3 mps 609 mmHg 23%
    17:00 +34°C° 0 mm 3 mps 609 mmHg 23%
    18:00 +32°C° 0 mm 2 mps 608 mmHg 26%
    19:00 +31°C° 0 mm 2 mps 608 mmHg 28%
    20:00 +29°C° 0 mm 2 mps 608 mmHg 31%
    21:00 +29°C° 0 mm 2 mps 608 mmHg 34%
    22:00 +28°C° 0 mm 2 mps 608 mmHg 37%
    23:00 +27°C° 0 mm 1 mps 608 mmHg 40%

    Tomorrow, 19 July, Thursday

    Time Temperature Precipitation Wind Pressure Humidity
    00:00 +26°C° 0 mm 1 mps 608 mmHg 42%
    01:00 +25°C° 0 mm 1 mps 607 mmHg 45%
    02:00 +25°C° 0 mm 1 mps 607 mmHg 47%
    03:00 +24°C° 0 mm 1 mps 607 mmHg 48%
    04:00 +24°C° 0 mm 1 mps 607 mmHg 49%
    05:00 +23°C° 0 mm 1 mps 606 mmHg 51%
    06:00 +25°C° 0 mm 1 mps 607 mmHg 45%
    07:00 +26°C° 0 mm 1 mps 608 mmHg 39%
    08:00 +25°C° 0 mm 0 mps 608 mmHg 33%
    09:00 +28°C° 0 mm 1 mps 609 mmHg 29%
    10:00 +30°C° 0 mm 1 mps 609 mmHg 25%
    11:00 +31°C° 0 mm 2 mps 609 mmHg 21%
    12:00 +32°C° 0 mm 2 mps 609 mmHg 20%
    13:00 +34°C° 0 mm 2 mps 609 mmHg 18%
    14:00 +35°C° 0 mm 2 mps 609 mmHg 17%
    15:00 +35°C° 0 mm 3 mps 609 mmHg 17%
    16:00 +35°C° 0 mm 3 mps 609 mmHg 17%
    17:00 +35°C° 0 mm 3 mps 609 mmHg 16%
    18:00 +34°C° 0 mm 3 mps 608 mmHg 18%
    19:00 +31°C° 0 mm 2 mps 608 mmHg 21%
    20:00 +30°C° 0 mm 2 mps 608 mmHg 23%
    21:00 +29°C° 0 mm 2 mps 608 mmHg 24%
    22:00 +28°C° 0 mm 2 mps 608 mmHg 26%
    23:00 +27°C° 0 mm 2 mps 608 mmHg 27%

    Day after tomorrow, 20 July, Friday

    Time Temperature Precipitation Wind Pressure Humidity
    00:00 +27°C° 0 mm 1 mps 607 mmHg 29%
    01:00 +26°C° 0 mm 1 mps 607 mmHg 31%
    02:00 +25°C° 0 mm 1 mps 607 mmHg 33%
    03:00 +25°C° 0 mm 1 mps 607 mmHg 34%
    04:00 +24°C° 0 mm 1 mps 606 mmHg 35%
    05:00 +24°C° 0 mm 1 mps 606 mmHg 36%
    06:00 +25°C° 0 mm 1 mps 607 mmHg 32%
    07:00 +26°C° 0 mm 1 mps 607 mmHg 28%
    08:00 +28°C° 0 mm 1 mps 608 mmHg 24%
    09:00 +29°C° 0 mm 1 mps 608 mmHg 21%
    10:00 +30°C° 0 mm 1 mps 609 mmHg 19%
    11:00 +32°C° 0 mm 2 mps 609 mmHg 16%
    12:00 +32°C° 0 mm 2 mps 609 mmHg 15%
    13:00 +34°C° 0 mm 2 mps 609 mmHg 14%
    14:00 +35°C° 0 mm 2 mps 609 mmHg 13%
    15:00 +35°C° 0 mm 3 mps 609 mmHg 13%
    16:00 +36°C° 0 mm 3 mps 609 mmHg 12%
    17:00 +36°C° 0 mm 3 mps 609 mmHg 12%
    18:00 +34°C° 0 mm 3 mps 608 mmHg 14%
    19:00 +33°C° 0 mm 3 mps 608 mmHg 15%
    20:00 +31°C° 0 mm 2 mps 608 mmHg 17%
    21:00 +30°C° 0 mm 2 mps 608 mmHg 19%
    22:00 +29°C° 0 mm 2 mps 608 mmHg 21%
    23:00 +28°C° 0 mm 2 mps 608 mmHg 23%

    21 July, Saturday

    Time Temperature Precipitation Wind Pressure Humidity
    00:00 +27°C° 0 mm 1 mps 607 mmHg 25%
    01:00 +26°C° 0 mm 1 mps 607 mmHg 27%
    02:00 +25°C° 0 mm 1 mps 606 mmHg 29%
    03:00 +25°C° 0 mm 1 mps 606 mmHg 29%
    04:00 +24°C° 0 mm 1 mps 606 mmHg 29%
    05:00 +24°C° 0 mm 1 mps 606 mmHg 29%
    06:00 +25°C° 0 mm 1 mps 606 mmHg 26%
    07:00 +27°C° 0 mm 1 mps 607 mmHg 22%
    08:00 +28°C° 0 mm 1 mps 608 mmHg 19%
    09:00 +29°C° 0 mm 1 mps 608 mmHg 17%
    10:00 +31°C° 0 mm 1 mps 609 mmHg 15%
    11:00 +32°C° 0 mm 2 mps 609 mmHg 13%
    12:00 +34°C° 0 mm 2 mps 609 mmHg 12%
    13:00 +35°C° 0 mm 2 mps 609 mmHg 11%
    14:00 +36°C° 0 mm 2 mps 609 mmHg 10%
    15:00 +36°C° 0 mm 3 mps 609 mmHg 9%
    16:00 +37°C° 0 mm 3 mps 608 mmHg 9%
    17:00 +37°C° 0 mm 3 mps 608 mmHg 9%
    18:00 +35°C° 0 mm 3 mps 608 mmHg 11%
    19:00 +34°C° 0 mm 3 mps 608 mmHg 13%
    20:00 +31°C° 0 mm 3 mps 608 mmHg 14%
    21:00 +30°C° 0 mm 3 mps 608 mmHg 17%
    22:00 +29°C° 0 mm 2 mps 607 mmHg 19%
    23:00 +28°C° 0 mm 2 mps 607 mmHg 21%

    22 July, Sunday

    Time Temperature Precipitation Wind Pressure Humidity
    00:00 +27°C° 0 mm 2 mps 607 mmHg 22%
    01:00 +26°C° 0 mm 2 mps 606 mmHg 23%
    02:00 +25°C° 0 mm 2 mps 606 mmHg 24%
    03:00 +25°C° 0 mm 2 mps 605 mmHg 23%
    04:00 +24°C° 0 mm 2 mps 605 mmHg 22%
    05:00 +24°C° 0 mm 2 mps 605 mmHg 22%
    06:00 +25°C° 0 mm 2 mps 606 mmHg 19%
    07:00 +27°C° 0 mm 2 mps 606 mmHg 17%
    08:00 +28°C° 0 mm 2 mps 607 mmHg 15%
    09:00 +30°C° 0 mm 2 mps 607 mmHg 14%
    10:00 +31°C° 0 mm 2 mps 608 mmHg 13%
    11:00 +34°C° 0 mm 2 mps 608 mmHg 12%
    12:00 +35°C° 0 mm 2 mps 608 mmHg 11%
    13:00 +36°C° 0 mm 2 mps 608 mmHg 10%
    14:00 +37°C° 0 mm 2 mps 607 mmHg 10%
    15:00 +37°C° 0 mm 3 mps 607 mmHg 10%
    16:00 +37°C° 0 mm 3 mps 607 mmHg 10%
    17:00 +37°C° 0 mm 3 mps 607 mmHg 10%
    18:00 +36°C° 0 mm 3 mps 607 mmHg 12%
    19:00 +34°C° 0 mm 3 mps 607 mmHg 14%
    20:00 +33°C° 0 mm 3 mps 607 mmHg 16%
    21:00 +30°C° 0 mm 2 mps 607 mmHg 18%
    22:00 +29°C° 0 mm 2 mps 607 mmHg 20%
    23:00 +28°C° 0 mm 2 mps 607 mmHg 22%

    23 July, Monday

    Time Temperature Precipitation Wind Pressure Humidity
    00:00 +27°C° 0 mm 2 mps 607 mmHg 24%
    01:00 +27°C° 0 mm 1 mps 606 mmHg 26%
    02:00 +26°C° 0 mm 1 mps 606 mmHg 28%
    03:00 +25°C° 0 mm 1 mps 605 mmHg 27%
    04:00 +25°C° 0 mm 1 mps 605 mmHg 27%
    05:00 +24°C° 0 mm 1 mps 605 mmHg 27%
    06:00 +26°C° 0 mm 1 mps 606 mmHg 24%
    07:00 +27°C° 0 mm 1 mps 606 mmHg 21%
    08:00 +28°C° 0 mm 1 mps 607 mmHg 17%
    09:00 +30°C° 0 mm 1 mps 607 mmHg 16%
    10:00 +31°C° 0 mm 1 mps 608 mmHg 14%
    11:00 +34°C° 0 mm 2 mps 608 mmHg 12%
    12:00 +35°C° 0 mm 2 mps 608 mmHg 11%
    13:00 +36°C° 0 mm 2 mps 608 mmHg 10%
    14:00 +36°C° 0 mm 2 mps 608 mmHg 9%
    15:00 +37°C° 0 mm 3 mps 608 mmHg 10%
    16:00 +37°C° 0 mm 3 mps 608 mmHg 10%
    17:00 +37°C° 0 mm 3 mps 608 mmHg 11%
    18:00 +35°C° 0 mm 3 mps 607 mmHg 15%
    19:00 +33°C° 0 mm 3 mps 607 mmHg 19%
    20:00 +30°C° 0 mm 3 mps 607 mmHg 23%
    21:00 +29°C° 0 mm 3 mps 607 mmHg 29%
    22:00 +28°C° 0 mm 2 mps 607 mmHg 35%
    23:00 +27°C° 0 mm 2 mps 607 mmHg 41%
    Show more